STARLINK-5568 (55372 NORAD) Tracking and Keplerian Element Data

This shows tracking and keplerian element data for the satellite.

Feedback or suggestion? Click here.




ElementValue
Catalog55372
NameSTARLINK-5568
Epoch Orbit1584
Epoch Day126.65729442
Epoch Year2023
RAAN193.5876
Inclination43.0012
Eccentricity0.0001691
Argument of Perigee275.6009
Mean Anonmoly84.4641
Mean Motion15.02542663
Decay Rate4.6E-06
L11 55372U 23013AT 23126.65729442 .00000460 00000+0 49134-4 0 9998
L22 55372 43.0012 193.5876 0001691 275.6009 84.4641 15.02542663 15848



Live tracking and technical data element details for STARLINK-5568 (NORAD 55372). STARLINK-5568 can be tracked NOW for your location showing map with azimuth and elevation plus other details from your city location.







IsCatalogInMostPopularTable: catalog: 55372, numindb: 1
Update: records affected: 1



GetName: 55372 STARLINK-5568

Hit Count: updated at: Mon, 05 Jun 2023 21:16:17 GMT